Printer-friendly version
Follow the MPC on Twitter Follow the MPC on Facebook The MPC blog
Minor Planet Center

MPEC 2007-S10 : 2007 RP133

The following Minor Planet Electronic Circular may be linked-to from your own Web pages, but must not otherwise be redistributed electronically.

A form allowing access to any MPEC is at the bottom of this page.


Read MPEC 2007-S09 Read MPEC 2007-S11


M.P.E.C. 2007-S10                                Issued 2007 Sept. 17, 18:10 UT

     The Minor Planet Electronic Circulars contain information on unusual
         minor planets and routine data on comets.  They are published
   on behalf of Commission 20 of the International Astronomical Union by the
          Minor Planet Center, Smithsonian Astrophysical Observatory,
                          Cambridge, MA 02138, U.S.A.

             Prepared using the Tamkin Foundation Computer Network

                              MPC@CFA.HARVARD.EDU
          URL http://www.cfa.harvard.edu/iau/mpc.html  ISSN 1523-6714

                                  2007 RP133

Observations:
     K07RD3P* C2007 09 15.40260 01 15 34.15 +23 44 21.5          18.8 R ES010699
     K07RD3P  C2007 09 15.42550 01 15 36.54 +23 45 39.1                 ES010699
     K07RD3P  C2007 09 15.44837 01 15 38.96 +23 46 56.0                 ES010699
     K07RD3P  C2007 09 15.47127 01 15 41.18 +23 48 13.4                 ES010699
     K07RD3P  C2007 09 15.83367 01 16 24.81 +24 08 31.0          19.5 V ES010A17
     K07RD3P  C2007 09 15.84473 01 16 25.97 +24 09 09.0          19.3 V ES010A17
     K07RD3P  C2007 09 15.85448 01 16 27.01 +24 09 42.1          19.1 V ES010A17
     K07RD3P  C2007 09 15.89209 01 16 30.93 +24 11 54.1          20.2 V ES010595
     K07RD3P  C2007 09 15.89999 01 16 31.85 +24 12 21.4          18.9 V ES010595
     K07RD3P  C2007 09 15.90645 01 16 32.70 +24 12 39.4                 ES010J95
     K07RD3P  C2007 09 15.90788 01 16 32.68 +24 12 49.3          18.7 V ES010595
     K07RD3P  C2007 09 15.90938 01 16 32.98 +24 12 49.8                 ES010J95
     K07RD3P  C2007 09 15.91230 01 16 33.29 +24 12 59.3          19.6 R ES010J95
     K07RD3P  C2007 09 15.91707 01 16 33.68 +24 13 21.5          19.3 V ES010595
     K07RD3P  C2007 09 15.94559 01 16 36.74 +24 14 57.1          19.4 V ES010151
     K07RD3P  C2007 09 15.94710 01 16 36.87 +24 15 02.2          19.4 V ES010151
     K07RD3P  C2007 09 15.94862 01 16 37.00 +24 15 07.0          19.3 V ES010151
     K07RD3P  C2007 09 15.94919 01 16 37.02 +24 15 10.3          19.0 R ES010473
     K07RD3P  C2007 09 15.94956 01 16 37.20 +24 15 11.4          19.4 V ES010A13
     K07RD3P  C2007 09 15.95011 01 16 37.15 +24 15 12.6          19.5 V ES010151
     K07RD3P  C2007 09 15.95160 01 16 37.31 +24 15 18.0          19.4 V ES010151
     K07RD3P  C2007 09 15.95312 01 16 37.43 +24 15 22.9          19.4 V ES010151
     K07RD3P  C2007 09 15.95500 01 16 37.63 +24 15 30.8          19.0 R ES010473
     K07RD3P  C2007 09 15.96925 01 16 39.21 +24 16 18.9          19.8 V ES010A13
     K07RD3P  C2007 09 15.99490 01 16 41.66 +24 17 48.0          18.9 R ES010157
     K07RD3P  C2007 09 15.99858 01 16 42.10 +24 18 01.5          19.0 R ES010157
     K07RD3P  C2007 09 16.10679 01 16 52.90 +24 24 03.6          18.4 R ES010118
     K07RD3P  C2007 09 16.10975 01 16 53.22 +24 24 13.4          18.5 R ES010118
     K07RD3P  C2007 09 16.17454501 17 02.87 +24 27 56.1          19.4 V ES010H55
     K07RD3P  C2007 09 16.17798601 17 03.27 +24 28 07.6          19.4 V ES010H55
     K07RD3P  C2007 09 16.18143101 17 03.64 +24 28 19.6          19.6 V ES010H55
     K07RD3P  C2007 09 16.90432 01 18 24.19 +25 08 55.4          19.3   ES010B15
     K07RD3P  C2007 09 16.90915 01 18 24.72 +25 09 11.5          19.2   ES010B15
     K07RD3P  C2007 09 16.91396 01 18 25.21 +25 09 27.9          19.4   ES010B15

Observer details:
118 Modra.  Observers S. Gajdos, J. Vilagi.  0.6-m f/5.5 reflector + CCD.
151 Eschenberg Observatory, Winterthur.  Observer M. Griesser.  0.40-m f/5.9
    Hypergraph + CCD.
157 Frasso Sabino.  Observers R. Haver, .. Caponnetto.  Measurer R. Haver.
    0.37-m f/5.8 Schmidt-Cassegrain + CCD.
473 Remanzacco.  Observers L. Donato, M. Gonano, V. Gonano, E. Guido,
    V. Santini, G. Sostero.  0.45-m f/4.4 Newtonian reflector + CCD.
595 Farra d'Isonzo.  Observers G. Lombardi, F. Piani.  Measurer G. Lombardi.
    0.40-m f/4.5 reflector + CCD.
699 Lowell Observatory-LONEOS.  Observer J. J. Sanborn.  0.59-m LONEOS Schmidt
    + CCD.
A13 Observatoire Naef, Marly.  Observer P. Kocher.  0.5-m f/3.3 Hypergraph
    + CCD.
A17 Guidestar Observatory, Weinheim.  Observers M. Emmerich, S. Melchert.
    0.36-m f/6 Schmidt-Cassegrain + CCD.
B15 Inastars Observatory, Potsdam (since 2006).  Observer B. Thinius.  0.36-m
    f/7.5 Schmidt-Cassegrain + CCD.
H55 Astronomical Research Observatory, Charleston.  Observer R. Holmes.
    0.61-m f/4.0 astrograph + CCD.
J95 Great Shefford.  Observer P. Birtwhistle.  0.40-m f/6.0 Schmidt-Cassegrain
    + CCD.

Orbital elements:
2007 RP133                                               Earth MOID = 0.2186 AU
Epoch 2007 Oct. 27.0 TT = JDT 2454400.5                 MPC
M   6.60563              (2000.0)            P               Q
n   0.22917786     Peri.   31.62103     +0.98093039     -0.18643268
a   2.6445652      Node   338.91416     +0.13063917     +0.84173956
e   0.5437818      Incl.    8.78405     +0.14390612     +0.50667284
P   4.30           H   20.6           G   0.15           U   8
Residuals in seconds of arc
070915 699  1.7-  0.2+    070915 J95  0.2-  0.3-    070915 157  0.3-  0.9-
070915 699  0.3-  0.2+    070915 595  0.3+  0.9+    070915 157  0.7+  0.1+
070915 699  1.4+  0.1-    070915 151  0.5+  0.0     070916 118  0.1-  0.1+
070915 699  0.1+  0.2+    070915 151  0.2+  0.1-    070916 118  0.1+  0.1-
070915 A17  1.1+  0.0     070915 151  0.2-  0.5-    070916 H55  0.6-  0.5+
070915 A17  0.4+  0.1-    070915 473  0.6+  0.3-    070916 H55  0.1-  0.2+
070915 A17  0.1+  0.6-    070915 A13  0.5+  0.5+    070916 H55  0.1+  0.3+
070915 595  1.6-  0.6-    070915 151  0.2-  0.0     070916 B15  0.2-  0.2+
070915 595  0.4-  0.5-    070915 151  0.2-  0.3+    070916 B15  0.1+  0.1-
070915 J95  0.3+  0.1-    070915 151  0.7-  0.0     070916 B15  0.0   0.1-
070915 595  0.3-  0.3+    070915 473  0.8+  0.3+
070915 J95  0.2-  0.2+    070915 A13  0.2+  0.5+

Ephemeris:
2007 RP133               a,e,i = 2.64, 0.54, 9                   q = 1.2065
Date    TT    R. A. (2000) Decl.     Delta      r     Elong.  Phase     V
2007 09 17    01 18.56   +25 14.6    0.249    1.213   142.8    30.0    19.3
2007 09 27    01 36.38   +34 01.9    0.247    1.207   141.9    30.8    19.3
2007 10 07    01 51.88   +41 01.5    0.256    1.211   141.5    30.9    19.4
2007 10 17    02 04.15   +45 41.0    0.275    1.226   142.4    29.8    19.5
2007 10 27    02 13.46   +48 03.0    0.301    1.251   144.4    27.5    19.7
2007 11 06    02 20.88   +48 29.3    0.335    1.286   147.0    24.9    19.9
2007 11 16    02 28.00   +47 28.9    0.379    1.328   149.0    22.6    20.2
2007 11 26    02 36.34   +45 35.5    0.433    1.377   149.3    21.5    20.5
2007 12 06    02 46.44   +43 18.7    0.500    1.432   147.3    21.8    20.9
2007 12 16    02 58.43   +41 00.0    0.581    1.491   143.4    23.2    21.4
2007 12 26    03 12.17   +38 53.5    0.675    1.554   138.2    25.0    21.9

Timothy B. Spahr             (C) Copyright 2007 MPC           M.P.E.C. 2007-S10

Read MPEC 2007-S09 Read MPEC 2007-S11


MPEC number:

Enter an MPEC number in one of the following forms:

  • 1997-B01 (the full form)
  • J97B01 (the packed version of the full form)
  • B01 (the abbreviated form)

Valid HTML 4.01!